• Join FlightAware (Why Join?)
  • Login
  • US Flag GB Flag 
17:10 EST


 

Airport Tracker/Info


-or-


 

Live Flight TrackerFlight Track Log ✈ SKW5564 ✈ 18-May-2013 ✈ KLAS - KSFO

Flight Track Log - Related Links

Times and Time Zones

All times are in EDT time to prevent confusion due to time zone crossing. See the SKW5564 flight status page for this flight to view local times or setup timezone preferences in your user account.

Time Position Orientation Groundspeed Altitude Reporting Facility
EDT Latitude Longitude Course Direction KTS MPH feet Rate Location/Type
14:36 36.0756 -115.1658 270° West 162 186 2,900  Level Los Angeles Center
14:37 36.0750 -115.2031 269° West 184 212 3,800 1,920 Climbing Los Angeles Center
14:38 36.0611 -115.2572 252° West 225 259 5,600 2,160 Climbing Los Angeles Center
14:38 36.0444 -115.2717 215° Southwest 256 295 6,000 2,220 Climbing Los Angeles Center
14:39 35.9165 -115.3816 204° Southwest  Level FlightAware Approximate
14:39 35.9914 -115.2906 196° South 258 297 7,900  Level Los Angeles Center
14:40 35.8834 -115.4869 270° West  Level FlightAware Approximate
14:40 35.9375 -115.3544 224° Southwest 269 310 11,000  Level Los Angeles Center
14:41 35.8833 -115.6188 270° West  Level FlightAware Approximate
14:41 35.9283 -115.4564 264° West 288 331 13,200  Level Los Angeles Center
14:42 35.9222 -115.5719 266° West 304 350 15,700 2,520 Climbing Los Angeles Center
14:43 35.9142 -115.6808 265° West 317 365 18,500 2,100 Climbing Los Angeles Center
14:44 35.9089 -115.7706 266° West 313 360 20,100 1,920 Climbing Los Angeles Center
14:45 35.9847 -115.8958 307° West 313 360 23,000 2,160 Climbing Los Angeles Center
14:46 36.0386 -115.9744 310° West 316 364 25,100 1,740 Climbing Los Angeles Center
14:47 36.0964 -116.0567 311° West 315 362 26,600 1,380 Climbing Los Angeles Center
14:48 36.1553 -116.1428 310° West 325 374 28,000 1,320 Climbing Los Angeles Center
14:49 36.2233 -116.2422 310° West 338 389 29,400 1,140 Climbing Los Angeles Center
14:50 36.2847 -116.3328 310° West 344 396 30,600 1,140 Climbing Los Angeles Center
14:51 36.3594 -116.4428 310° West 348 400 32,100 1,440 Climbing Los Angeles Center
14:52 36.4206 -116.5342 310° West 346 398 33,600 1,260 Climbing Los Angeles Center
14:54 36.4936 -116.6383 311° West 338 389 34,800 960 Climbing Los Angeles Center
14:55 36.5489 -116.7231 309° West 342 394 35,700 540 Climbing Los Angeles Center
14:56 36.6272 -116.7953 324° Northwest 354 407 36,000 120 Climbing Los Angeles Center
14:57 36.7333 -116.8769 328° Northwest 370 426 36,000  Level Los Angeles Center
14:58 36.8244 -116.9450 329° Northwest 378 435 36,000  Level Los Angeles Center
14:59 36.9108 -117.0142 327° Northwest 371 427 36,000  Level Los Angeles Center
14:59 36.9286 -117.0256 333° Northwest 369 425 36,000  Level Oakland Center
15:00 37.0167 -117.0939 328° Northwest 371 427 36,000  Level Oakland Center
15:01 37.1044 -117.1611 329° Northwest 370 426 36,000  Level Oakland Center
15:02 37.1878 -117.2717 313° West 370 426 36,000  Level Oakland Center
15:03 37.2117 -117.4003 283° West 377 434 36,000  Level Oakland Center
15:04 37.2292 -117.5314 280° West 380 437 36,000  Level Oakland Center
15:05 37.2461 -117.6608 279° West 378 435 36,000  Level Oakland Center
15:06 37.2619 -117.7889 279° West 373 429 36,000  Level Oakland Center
15:07 37.2794 -117.9183 280° West 375 432 36,000  Level Oakland Center
15:08 37.2947 -118.0450 279° West 369 425 36,000  Level Oakland Center
15:09 37.3114 -118.1731 279° West 370 426 36,000  Level Oakland Center
15:10 37.3272 -118.3036 279° West 377 434 36,000  Level Oakland Center
15:11 37.3431 -118.4319 279° West 373 429 36,000  Level Oakland Center
15:12 37.3583 -118.5608 279° West 373 429 36,000  Level Oakland Center
15:13 37.3742 -118.6900 279° West 375 432 36,000  Level Oakland Center
15:14 37.3914 -118.8333 279° West 378 435 36,000  Level Oakland Center
15:15 37.4072 -118.9631 279° West 376 433 36,000  Level Oakland Center
15:16 37.4225 -119.0933 278° West 377 434 36,000  Level Oakland Center
15:17 37.4408 -119.2311 280° West 400 460 36,000  Level Oakland Center
15:18 37.4589 -119.3867 278° West 379 436 36,000 -180 Level Oakland Center
15:19 37.4717 -119.5181 277° West 379 436 35,700 -720 Descending Oakland Center
15:20 37.4867 -119.6533 278° West 387 445 34,600 -1,080 Descending Oakland Center
15:21 37.5017 -119.7861 278° West 378 435 33,600 -1,020 Descending Oakland Center
15:22 37.5144 -119.9144 277° West 370 426 32,600 -1,140 Descending Oakland Center
15:23 37.5297 -120.0508 278° West 393 452 31,400 -1,500 Descending Oakland Center
15:24 37.5467 -120.1828 279° West 378 435 29,600 -1,800 Descending Oakland Center
15:26 37.5614 -120.3242 278° West 399 459 27,800 -1,980 Descending Oakland Center
15:26 37.5667 -120.4500 273° West 408 470 26,100 -2,040 Descending Northern Cal TRACON
15:27 37.5833 -120.5833 279° West 414 476 24,300 -2,160 Descending Northern Cal TRACON
15:28 37.6000 -120.7167 279° West 390 449 21,800 -2,400 Descending Northern Cal TRACON
15:29 37.6167 -120.8667 278° West 385 443 19,500 -2,040 Descending Northern Cal TRACON
15:30 37.6167 -120.9833 270° West 379 436 17,800 -1,920 Descending Northern Cal TRACON
15:31 37.6167 -121.1167 270° West 385 443 15,700 -2,040 Descending Northern Cal TRACON
15:32 37.6000 -121.2500 261° West 369 425 13,800 -1,980 Descending Northern Cal TRACON
15:33 37.5833 -121.3667 260° West 360 414 11,800 -1,440 Descending Northern Cal TRACON
15:34 37.5667 -121.4833 260° West 302 348 11,000 -420 Descending Northern Cal TRACON
15:35 37.5500 -121.5833 258° West 288 331 11,000 -240 Level Northern Cal TRACON
15:36 37.5333 -121.6667 256° West 263 303 10,600 -900 Descending Northern Cal TRACON
15:37 37.5167 -121.7500 256° West 258 297 9,200 -1,320 Descending Northern Cal TRACON
15:38 37.5000 -121.8333 256° West 253 291 8,000 -600 Descending Northern Cal TRACON
15:39 37.4833 -121.9167 256° West 232 267 8,000 -840 Level Northern Cal TRACON
15:40 37.5000 -122.0000 284° West 230 265 6,400 -1,260 Descending Northern Cal TRACON
15:41 37.5167 -122.0667 288° West 202 232 5,500 -1,200 Descending Northern Cal TRACON
15:42 37.5333 -122.1333 288° West 201 231 4,000 -1,200 Descending Northern Cal TRACON
15:43 37.5497 -122.1614 306° West 198 228 3,600 -900 Descending Oakland Center
15:44 37.5678 -122.2181 292° West 186 214 2,600 -1,020 Descending Oakland Center